Location: Courcelles
(49.2596°N, 1.7419°E)
Time: 00:46:42
(UTC+00:00)

Cosmos 1763 Rocket - Pass Details

Date: 17 November 2025
Orbit: 728 x 774 km, 74.0° (Epoch: 04 December)

Event Time Altitude Azimuth Distance (km) Brightness Sun altitude
Rises 17:27:01 0° 335° (NNW) 3,243 6.9 -12.6°
Reaches altitude 10° 17:29:25 10° 335° (NNW) 2,306 6.1 -13.0°
Maximum altitude 17:34:39 82° 250° (WSW) 769 3.6 -13.9°
Drops below altitude 10° 17:39:47 10° 162° (SSE) 2,259 5.9 -14.7°
Sets 17:42:06 0° 162° (SSE) 3,171 6.6 -15.0°
